Find Starlink 6245

NORAD ID: 57079 Int'l Des: 2023-088 Owner: SPXS Country: US Constellation: starlink operational
LEOCIRCULAR

Live Position

Loading 3D Globe...

About Starlink 6245

Description loading...

Upcoming Passes

Passes for default location (London). Set your location on the main map for personalized predictions.

Altitude History

Loading altitude history...

Two-Line Element Set

1 57079U 23088AH 26104.84165124 .00000672 00000-0 34733-4 0 9992
2 57079 43.0022 251.5847 0001174 268.8863 91.1854 15.26753513156038
Epoch: Apr 14, 2026 • Age: 12 hours

Current Status

Altitude 497.7 km
Velocity 7.62 km/s
Sub-Earth Point -42.24°S, 156.53°W
Launch Date Jun 22, 2023
Age 2.8 years
Type internet

Technical Details

Classification Payload
Mass 305.00 kg
Dry Mass 290.00 kg
Total Mass 305.00 kg
Length 0.20 m
Diameter 2.80 m
Span 9.00 m
Shape Box + pan
Manufacturer SPXS
Bus Type Starlink
Phase Status In Orbit
Owner/State SPXS/US

Most Searched